Time,TemperatureF,DewpointF,PressureIn,WindDirection,WindDirectionDegrees,WindSpeedMPH,WindSpeedGustMPH,Humidity,HourlyPrecipIn,Conditions,Clouds,dailyrainin,SolarRadiationWatts/m^2,SoftwareType,DateUTC
2013-03-15 00:00:00,16.8,10.2,29.82,NW,317,4.6,4.6,75,0.00,CLR,,0.00,0.0,WeatherDisplay:10.37,2013-03-15 04:00:00,
2013-03-15 00:05:00,16.8,10.2,29.82,WNW,289,5.8,5.8,75,0.00,CLR,,0.00,0.0,WeatherDisplay:10.37,2013-03-15 04:05:00,
2013-03-15 00:10:00,16.8,10.5,29.82,WNW,284,5.0,5.0,76,0.00,CLR,,0.00,0.0,WeatherDisplay:10.37,2013-03-15 04:10:00,
2013-03-15 00:15:00,16.8,10.5,29.82,NW,306,7.0,7.0,76,0.00,CLR,,0.00,0.0,WeatherDisplay:10.37,2013-03-15 04:15:00,
2013-03-15 00:20:00,16.9,10.6,29.82,WNW,295,2.3,2.3,76,0.00,CLR,,0.00,0.0,WeatherDisplay:10.37,2013-03-15 04:20:00,
2013-03-15 00:25:00,16.9,10.6,29.82,NW,317,2.3,2.3,76,0.00,CLR,,0.00,0.0,WeatherDisplay:10.37,2013-03-15 04:25:00,
2013-03-15 00:30:00,16.9,10.6,29.82,North,360,5.0,5.0,76,0.00,CLR,,0.00,0.0,WeatherDisplay:10.37,2013-03-15 04:30:00,
2013-03-15 00:35:00,17.0,10.7,29.82,NW,309,6.9,6.9,76,0.00,CLR,,0.00,0.0,WeatherDisplay:10.37,2013-03-15 04:35:00,
2013-03-15 00:40:00,17.0,10.7,29.82,NW,309,2.3,2.3,76,0.00,CLR,,0.00,0.0,WeatherDisplay:10.37,2013-03-15 04:40:00,
2013-03-15 00:45:00,16.9,10.6,29.82,NW,310,3.5,3.5,76,0.00,CLR,,0.00,0.0,WeatherDisplay:10.37,2013-03-15 04:45:00,
2013-03-15 00:50:00,16.9,10.6,29.82,WNW,296,6.9,6.9,76,0.00,CLR,,0.00,0.0,WeatherDisplay:10.37,2013-03-15 04:50:00,
2013-03-15 00:55:00,16.9,10.6,29.82,NW,325,3.5,3.5,76,0.00,CLR,,0.00,0.0,WeatherDisplay:10.37,2013-03-15 04:55:00,
2013-03-15 01:00:00,16.9,10.9,29.82,NNW,343,3.5,3.5,77,0.00,CLR,,0.00,0.0,WeatherDisplay:10.37,2013-03-15 05:00:00,
2013-03-15 01:05:00,16.8,10.8,29.82,WNW,302,3.5,3.5,77,0.00,CLR,,0.00,0.0,WeatherDisplay:10.37,2013-03-15 05:05:00,
2013-03-15 01:10:00,16.8,10.8,29.83,NNW,344,2.3,2.3,77,0.00,CLR,,0.00,0.0,WeatherDisplay:10.37,2013-03-15 05:10:00,
2013-03-15 01:15:00,16.8,10.8,29.83,WNW,302,6.9,6.9,77,0.00,CLR,,0.00,0.0,WeatherDisplay:10.37,2013-03-15 05:15:00,
2013-03-15 01:20:00,16.8,10.8,29.83,NW,311,3.5,0.0,77,0.00,CLR,,0.00,0.0,WeatherDisplay:10.37,2013-03-15 05:20:00,
2013-03-15 01:25:00,16.8,10.8,29.83,NW,323,4.6,4.6,77,0.00,CLR,,0.00,0.0,WeatherDisplay:10.37,2013-03-15 05:25:00,
2013-03-15 01:30:00,16.8,10.8,29.83,NW,315,5.8,5.8,77,0.00,CLR,,0.00,0.0,WeatherDisplay:10.37,2013-03-15 05:30:00,
2013-03-15 01:35:00,16.8,10.8,29.83,NW,313,6.9,6.9,77,0.00,CLR,,0.00,0.0,WeatherDisplay:10.37,2013-03-15 05:35:00,
2013-03-15 01:40:00,16.8,10.8,29.83,NW,306,6.9,6.9,77,0.00,CLR,,0.00,0.0,WeatherDisplay:10.37,2013-03-15 05:40:00,
2013-03-15 01:45:00,16.9,10.9,29.83,NW,306,2.3,2.3,77,0.00,CLR,,0.00,0.0,WeatherDisplay:10.37,2013-03-15 05:45:00,
2013-03-15 01:50:00,16.9,10.9,29.83,NNW,328,2.3,2.3,77,0.00,CLR,,0.00,0.0,WeatherDisplay:10.37,2013-03-15 05:50:00,
2013-03-15 01:55:00,16.9,10.9,29.83,NW,323,3.5,3.5,77,0.00,CLR,,0.00,0.0,WeatherDisplay:10.37,2013-03-15 05:55:00,
2013-03-15 02:00:00,16.8,10.5,29.83,NW,316,5.8,5.8,76,0.00,CLR,,0.00,0.0,WeatherDisplay:10.37,2013-03-15 06:00:00,
2013-03-15 02:05:00,16.8,10.5,29.83,WNW,282,1.0,0.0,76,0.00,CLR,,0.00,0.0,WeatherDisplay:10.37,2013-03-15 06:05:00,
2013-03-15 02:10:00,16.9,10.6,29.83,NNW,338,9.0,9.0,76,0.00,CLR,,0.00,0.0,WeatherDisplay:10.37,2013-03-15 06:10:00,
2013-03-15 02:15:00,16.9,10.6,29.83,WNW,303,11.5,11.5,76,0.00,CLR,,0.00,0.0,WeatherDisplay:10.37,2013-03-15 06:15:00,
2013-03-15 02:20:00,16.9,10.6,29.84,WNW,283,2.3,2.3,76,0.00,CLR,,0.00,0.0,WeatherDisplay:10.37,2013-03-15 06:20:00,
2013-03-15 02:25:00,16.8,10.5,29.83,NW,314,5.8,5.8,76,0.00,CLR,,0.00,0.0,WeatherDisplay:10.37,2013-03-15 06:25:00,
2013-03-15 02:30:00,16.8,10.5,29.84,WNW,300,5.8,5.8,76,0.00,CLR,,0.00,0.0,WeatherDisplay:10.37,2013-03-15 06:30:00,
2013-03-15 02:35:00,16.8,10.5,29.84,WNW,295,3.5,3.5,76,0.00,CLR,,0.00,0.0,WeatherDisplay:10.37,2013-03-15 06:35:00,
2013-03-15 02:40:00,16.7,10.7,29.83,WNW,292,8.1,8.1,77,0.00,CLR,,0.00,0.0,WeatherDisplay:10.37,2013-03-15 06:40:00,
2013-03-15 02:45:00,16.7,10.7,29.84,NW,306,12.7,12.7,77,0.00,CLR,,0.00,0.0,WeatherDisplay:10.37,2013-03-15 06:45:00,
2013-03-15 02:50:00,16.6,10.6,29.84,WNW,298,11.5,11.5,77,0.00,CLR,,0.00,0.0,WeatherDisplay:10.37,2013-03-15 06:50:00,
2013-03-15 02:55:00,16.4,10.4,29.84,NNW,327,11.5,11.5,77,0.00,CLR,,0.00,0.0,WeatherDisplay:10.37,2013-03-15 06:55:00,
2013-03-15 03:00:00,16.3,10.4,29.84,NW,311,6.0,6.0,77,0.00,CLR,,0.00,0.0,WeatherDisplay:10.37,2013-03-15 07:00:00,
2013-03-15 03:05:00,16.2,10.3,29.83,NW,317,5.8,5.8,77,0.00,CLR,,0.00,0.0,WeatherDisplay:10.37,2013-03-15 07:05:00,
2013-03-15 03:10:00,16.1,9.9,29.83,NNW,346,13.8,13.8,76,0.00,CLR,,0.00,0.0,WeatherDisplay:10.37,2013-03-15 07:10:00,
2013-03-15 03:15:00,15.9,9.4,29.83,WNW,302,3.5,3.5,75,0.00,CLR,,0.00,0.0,WeatherDisplay:10.37,2013-03-15 07:15:00,
2013-03-15 03:20:00,15.8,9.0,29.83,NW,306,5.8,5.8,74,0.00,CLR,,0.00,0.0,WeatherDisplay:10.37,2013-03-15 07:20:00,
2013-03-15 03:25:00,15.6,8.5,29.83,NW,321,5.8,5.8,73,0.00,CLR,,0.00,0.0,WeatherDisplay:10.37,2013-03-15 07:25:00,
2013-03-15 03:30:00,15.4,8.3,29.83,NW,306,4.6,4.6,73,0.00,CLR,,0.00,0.0,WeatherDisplay:10.37,2013-03-15 07:30:00,
2013-03-15 03:35:00,15.3,7.9,29.83,NW,315,9.2,9.2,72,0.00,CLR,,0.00,0.0,WeatherDisplay:10.37,2013-03-15 07:35:00,
2013-03-15 03:40:00,15.2,7.8,29.83,NW,310,5.0,5.0,72,0.00,CLR,,0.00,0.0,WeatherDisplay:10.37,2013-03-15 07:40:00,
2013-03-15 03:45:00,15.1,7.7,29.83,NW,311,5.8,5.8,72,0.00,CLR,,0.00,0.0,WeatherDisplay:10.37,2013-03-15 07:45:00,
2013-03-15 03:50:00,15.0,7.3,29.83,WNW,302,3.5,3.9,71,0.00,CLR,,0.00,0.0,WeatherDisplay:10.37,2013-03-15 07:50:00,
2013-03-15 03:55:00,14.9,7.2,29.82,NNW,327,11.5,11.5,71,0.00,CLR,,0.00,0.0,WeatherDisplay:10.37,2013-03-15 07:55:00,
2013-03-15 04:00:00,14.7,7.0,29.83,NW,324,3.5,3.5,71,0.00,CLR,,0.00,0.0,WeatherDisplay:10.37,2013-03-15 08:00:00,
2013-03-15 04:05:00,14.7,7.0,29.82,NNW,336,3.5,3.5,71,0.00,CLR,,0.00,0.0,WeatherDisplay:10.37,2013-03-15 08:05:00,
2013-03-15 04:10:00,14.5,6.8,29.83,NW,315,6.0,6.0,71,0.00,CLR,,0.00,0.0,WeatherDisplay:10.37,2013-03-15 08:10:00,
2013-03-15 04:15:00,14.5,6.8,29.83,WNW,296,3.5,3.5,71,0.00,CLR,,0.00,0.0,WeatherDisplay:10.37,2013-03-15 08:15:00,
2013-03-15 04:20:00,14.4,6.7,29.83,WNW,299,4.6,4.6,71,0.00,CLR,,0.00,0.0,WeatherDisplay:10.37,2013-03-15 08:20:00,
2013-03-15 04:25:00,14.4,6.7,29.83,NNW,328,0.0,0.0,71,0.00,CLR,,0.00,0.0,WeatherDisplay:10.37,2013-03-15 08:25:00,
2013-03-15 04:30:00,14.3,6.6,29.83,North,360,3.5,3.5,71,0.00,CLR,,0.00,0.0,WeatherDisplay:10.37,2013-03-15 08:30:00,
2013-03-15 04:35:00,14.2,6.5,29.83,NW,314,1.0,0.0,71,0.00,CLR,,0.00,0.0,WeatherDisplay:10.37,2013-03-15 08:35:00,
2013-03-15 04:40:00,14.2,6.5,29.83,NW,311,5.0,5.0,71,0.00,CLR,,0.00,0.0,WeatherDisplay:10.37,2013-03-15 08:40:00,
2013-03-15 04:45:00,14.1,6.7,29.83,NW,310,3.5,3.5,72,0.00,CLR,,0.00,0.0,WeatherDisplay:10.37,2013-03-15 08:45:00,
2013-03-15 04:50:00,14.1,6.7,29.83,NW,312,3.5,3.5,72,0.00,CLR,,0.00,0.0,WeatherDisplay:10.37,2013-03-15 08:50:00,
2013-03-15 04:55:00,14.1,6.7,29.83,NNW,327,5.0,5.0,72,0.00,CLR,,0.00,0.0,WeatherDisplay:10.37,2013-03-15 08:55:00,
2013-03-15 05:00:00,14.0,6.6,29.83,NW,321,6.9,6.9,72,0.00,CLR,,0.00,0.0,WeatherDisplay:10.37,2013-03-15 09:00:00,
2013-03-15 05:05:00,14.0,6.6,29.83,WNW,303,1.1,0.0,72,0.00,CLR,,0.00,0.0,WeatherDisplay:10.37,2013-03-15 09:05:00,
2013-03-15 05:10:00,13.9,6.5,29.84,WNW,303,0.0,0.0,72,0.00,CLR,,0.00,0.0,WeatherDisplay:10.37,2013-03-15 09:10:00,
2013-03-15 05:15:00,13.9,6.5,29.83,NNW,338,3.5,3.5,72,0.00,CLR,,0.00,0.0,WeatherDisplay:10.37,2013-03-15 09:15:00,
2013-03-15 05:20:00,13.8,6.4,29.83,NW,319,3.5,3.5,72,0.00,CLR,,0.00,0.0,WeatherDisplay:10.37,2013-03-15 09:20:00,
2013-03-15 05:25:00,13.7,6.3,29.83,NW,311,3.5,3.5,72,0.00,CLR,,0.00,0.0,WeatherDisplay:10.37,2013-03-15 09:25:00,
2013-03-15 05:30:00,13.7,6.6,29.83,NW,314,3.5,3.5,73,0.00,CLR,,0.00,0.0,WeatherDisplay:10.37,2013-03-15 09:30:00,
2013-03-15 05:35:00,13.7,6.6,29.83,NW,315,1.1,1.1,73,0.00,CLR,,0.00,0.0,WeatherDisplay:10.37,2013-03-15 09:35:00,
2013-03-15 05:40:00,13.6,6.5,29.83,WNW,298,2.3,2.3,73,0.00,CLR,,0.00,0.0,WeatherDisplay:10.37,2013-03-15 09:40:00,
2013-03-15 05:45:00,13.6,6.5,29.83,WNW,298,0.0,0.0,73,0.00,CLR,,0.00,0.0,WeatherDisplay:10.37,2013-03-15 09:45:00,
2013-03-15 05:50:00,13.5,6.5,29.83,WNW,298,1.1,1.1,73,0.00,CLR,,0.00,0.0,WeatherDisplay:10.37,2013-03-15 09:50:00,
2013-03-15 05:55:00,13.4,6.4,29.84,WNW,298,0.0,0.0,73,0.00,CLR,,0.00,0.0,WeatherDisplay:10.37,2013-03-15 09:55:00,
2013-03-15 06:00:00,13.3,6.3,29.84,WNW,298,3.5,3.5,73,0.00,CLR,,0.00,0.0,WeatherDisplay:10.37,2013-03-15 10:00:00,
2013-03-15 06:05:00,13.2,6.2,29.84,WNW,298,0.0,0.0,73,0.00,CLR,,0.00,0.0,WeatherDisplay:10.37,2013-03-15 10:05:00,
2013-03-15 06:10:00,13.1,6.1,29.84,WNW,298,0.0,0.0,73,0.00,CLR,,0.00,0.0,WeatherDisplay:10.37,2013-03-15 10:10:00,
2013-03-15 06:15:00,13.0,6.0,29.84,WNW,301,3.5,3.5,73,0.00,CLR,,0.00,0.0,WeatherDisplay:10.37,2013-03-15 10:15:00,
2013-03-15 06:20:00,12.9,5.9,29.84,WNW,301,1.1,1.1,73,0.00,CLR,,0.00,0.0,WeatherDisplay:10.37,2013-03-15 10:20:00,
2013-03-15 06:25:00,12.8,5.8,29.84,WNW,301,3.5,3.5,73,0.00,CLR,,0.00,0.0,WeatherDisplay:10.37,2013-03-15 10:25:00,
2013-03-15 06:30:00,12.7,6.0,29.85,WNW,301,1.1,0.0,74,0.00,CLR,,0.00,0.0,WeatherDisplay:10.37,2013-03-15 10:30:00,
2013-03-15 06:35:00,12.6,5.9,29.85,WNW,301,3.5,3.5,74,0.00,CLR,,0.00,0.0,WeatherDisplay:10.37,2013-03-15 10:35:00,
2013-03-15 06:40:00,12.6,5.9,29.85,WNW,289,3.5,3.5,74,0.00,CLR,,0.00,0.0,WeatherDisplay:10.37,2013-03-15 10:40:00,
2013-03-15 06:45:00,12.6,5.9,29.85,WNW,291,1.0,0.0,74,0.00,CLR,,0.00,0.0,WeatherDisplay:10.37,2013-03-15 10:45:00,
2013-03-15 06:50:00,12.6,5.9,29.84,NNW,328,3.5,3.5,74,0.00,CLR,,0.00,0.0,WeatherDisplay:10.37,2013-03-15 10:50:00,
2013-03-15 06:55:00,12.7,6.0,29.84,NW,325,0.0,0.0,74,0.00,CLR,,0.00,0.0,WeatherDisplay:10.37,2013-03-15 10:55:00,
2013-03-15 07:00:00,12.7,6.0,29.84,NW,324,1.1,1.1,74,0.00,CLR,,0.00,0.0,WeatherDisplay:10.37,2013-03-15 11:00:00,
2013-03-15 07:05:00,12.8,6.1,29.84,WNW,302,0.0,0.1,74,0.00,CLR,,0.00,5.0,WeatherDisplay:10.37,2013-03-15 11:05:00,
2013-03-15 07:10:00,12.9,6.2,29.84,WNW,303,2.3,2.3,74,0.00,CLR,,0.00,7.0,WeatherDisplay:10.37,2013-03-15 11:10:00,
2013-03-15 07:15:00,12.9,6.2,29.84,NW,309,2.3,2.3,74,0.00,CLR,,0.00,9.0,WeatherDisplay:10.37,2013-03-15 11:15:00,
2013-03-15 07:20:00,13.0,6.3,29.85,NW,319,3.0,3.0,74,0.00,CLR,,0.00,11.0,WeatherDisplay:10.37,2013-03-15 11:20:00,
2013-03-15 07:25:00,13.1,6.4,29.84,NW,319,2.3,2.3,74,0.00,CLR,,0.00,14.0,WeatherDisplay:10.37,2013-03-15 11:25:00,
2013-03-15 07:30:00,13.1,6.1,29.85,NW,325,3.5,3.5,73,0.00,CLR,,0.00,21.0,WeatherDisplay:10.37,2013-03-15 11:30:00,
2013-03-15 07:35:00,13.2,6.2,29.85,ENE,57,3.0,3.0,73,0.00,CLR,,0.00,42.0,WeatherDisplay:10.37,2013-03-15 11:35:00,
2013-03-15 07:40:00,13.3,6.3,29.85,NE,56,1.0,1.0,73,0.00,CLR,,0.00,46.0,WeatherDisplay:10.37,2013-03-15 11:40:00,
2013-03-15 07:45:00,13.5,6.5,29.84,NNE,33,3.5,3.5,73,0.00,CLR,,0.00,44.0,WeatherDisplay:10.37,2013-03-15 11:45:00,
2013-03-15 07:50:00,13.6,6.5,29.85,NNE,33,0.0,0.0,73,0.00,CLR,,0.00,37.0,WeatherDisplay:10.37,2013-03-15 11:50:00,
2013-03-15 07:55:00,13.8,6.7,29.84,NW,309,3.5,3.5,73,0.00,CLR,,0.00,23.0,WeatherDisplay:10.37,2013-03-15 11:55:00,
2013-03-15 08:00:00,13.9,6.8,29.84,NW,311,2.3,2.3,73,0.00,CLR,,0.00,26.0,WeatherDisplay:10.37,2013-03-15 12:00:00,
2013-03-15 08:05:00,14.0,6.6,29.84,NW,311,2.3,2.3,72,0.00,CLR,,0.00,28.0,WeatherDisplay:10.37,2013-03-15 12:05:00,
2013-03-15 08:10:00,14.2,6.8,29.84,NW,320,0.0,0.0,72,0.00,CLR,,0.00,37.0,WeatherDisplay:10.37,2013-03-15 12:10:00,
2013-03-15 08:15:00,14.3,6.9,29.85,NW,314,3.5,3.5,72,0.00,CLR,,0.00,37.0,WeatherDisplay:10.37,2013-03-15 12:15:00,
2013-03-15 08:20:00,14.5,7.1,29.84,NW,306,4.6,4.6,72,0.00,CLR,,0.00,42.0,WeatherDisplay:10.37,2013-03-15 12:20:00,
2013-03-15 08:25:00,14.7,7.3,29.85,NW,307,3.5,3.5,72,0.00,CLR,,0.00,42.0,WeatherDisplay:10.37,2013-03-15 12:25:00,
2013-03-15 08:30:00,14.9,7.2,29.84,WNW,288,3.5,3.5,71,0.00,CLR,,0.00,44.0,WeatherDisplay:10.37,2013-03-15 12:30:00,
2013-03-15 08:35:00,15.2,7.5,29.84,WNW,289,1.1,1.1,71,0.00,CLR,,0.00,83.0,WeatherDisplay:10.37,2013-03-15 12:35:00,
2013-03-15 08:40:00,15.5,7.5,29.84,NW,306,1.1,1.1,70,0.00,CLR,,0.00,54.0,WeatherDisplay:10.37,2013-03-15 12:40:00,
2013-03-15 08:45:00,15.8,7.4,29.84,WNW,299,4.0,4.0,69,0.00,CLR,,0.00,74.0,WeatherDisplay:10.37,2013-03-15 12:45:00,
2013-03-15 08:50:00,16.1,7.4,29.84,WNW,285,5.8,5.8,68,0.00,CLR,,0.00,69.0,WeatherDisplay:10.37,2013-03-15 12:50:00,
2013-03-15 08:55:00,16.5,7.8,29.85,NNW,328,7.0,7.0,68,0.00,CLR,,0.00,81.0,WeatherDisplay:10.37,2013-03-15 12:55:00,
2013-03-15 09:00:00,16.8,7.4,29.84,NW,314,2.3,2.3,66,0.00,OVC,,0.00,125.0,WeatherDisplay:10.37,2013-03-15 13:00:00,
2013-03-15 09:05:00,17.1,7.7,29.84,NW,315,4.6,4.6,66,0.00,OVC,,0.00,202.0,WeatherDisplay:10.37,2013-03-15 13:05:00,
2013-03-15 09:10:00,17.4,7.6,29.84,NW,317,3.5,3.5,65,0.00,OVC,,0.00,139.0,WeatherDisplay:10.37,2013-03-15 13:10:00,
2013-03-15 09:15:00,17.8,8.0,29.84,NNE,17,1.1,2.4,65,0.00,OVC,,0.00,134.0,WeatherDisplay:10.37,2013-03-15 13:15:00,
2013-03-15 09:20:00,18.1,8.0,29.84,NW,324,3.5,0.0,64,0.00,OVC,,0.00,141.0,WeatherDisplay:10.37,2013-03-15 13:20:00,
2013-03-15 09:25:00,18.4,8.2,29.84,NNW,336,3.5,3.5,64,0.00,OVC,,0.00,211.0,WeatherDisplay:10.37,2013-03-15 13:25:00,
2013-03-15 09:30:00,18.8,8.6,29.84,NNW,336,1.1,1.1,64,0.00,OVC,,0.00,264.0,WeatherDisplay:10.37,2013-03-15 13:30:00,
2013-03-15 09:35:00,19.2,9.0,29.83,NNW,335,1.1,0.0,64,0.00,OVC,,0.00,359.0,WeatherDisplay:10.37,2013-03-15 13:35:00,
2013-03-15 09:40:00,19.8,9.2,29.83,NNW,331,2.3,2.3,63,0.00,OVC,,0.00,207.0,WeatherDisplay:10.37,2013-03-15 13:40:00,
2013-03-15 09:45:00,20.4,8.7,29.83,West,281,6.0,6.0,60,0.00,OVC,,0.00,125.0,WeatherDisplay:10.37,2013-03-15 13:45:00,
2013-03-15 09:50:00,20.8,7.9,29.83,WNW,288,9.2,9.2,57,0.00,OVC,,0.00,176.0,WeatherDisplay:10.37,2013-03-15 13:50:00,
2013-03-15 09:55:00,21.3,8.0,29.83,WNW,284,10.4,10.4,56,0.00,OVC,,0.00,183.0,WeatherDisplay:10.37,2013-03-15 13:55:00,
2013-03-15 10:00:00,21.8,8.1,29.83,West,281,3.5,3.5,55,0.00,OVC,,0.00,271.0,WeatherDisplay:10.37,2013-03-15 14:00:00,
2013-03-15 10:05:00,22.3,8.2,29.83,West,279,4.6,4.6,54,0.00,OVC,,0.00,418.0,WeatherDisplay:10.37,2013-03-15 14:05:00,
2013-03-15 10:10:00,22.8,8.2,29.83,WNW,296,10.4,10.4,53,0.00,OVC,,0.00,457.0,WeatherDisplay:10.37,2013-03-15 14:10:00,
2013-03-15 10:15:00,23.3,8.2,29.82,West,280,11.5,11.5,52,0.00,OVC,,0.00,468.0,WeatherDisplay:10.37,2013-03-15 14:15:00,
2013-03-15 10:20:00,23.8,8.3,29.82,WNW,302,5.8,5.8,51,0.00,OVC,,0.00,501.0,WeatherDisplay:10.37,2013-03-15 14:20:00,
2013-03-15 10:25:00,24.2,8.7,29.81,SW,231,6.9,6.9,51,0.00,OVC,,0.00,311.0,WeatherDisplay:10.37,2013-03-15 14:25:00,
2013-03-15 10:30:00,24.5,8.0,29.81,SW,236,3.5,3.5,49,0.00,OVC,,0.00,478.0,WeatherDisplay:10.37,2013-03-15 14:30:00,
2013-03-15 10:35:00,24.8,8.3,29.81,SSW,199,4.6,4.6,49,0.00,OVC,,0.00,388.0,WeatherDisplay:10.37,2013-03-15 14:35:00,
2013-03-15 10:40:00,25.3,9.7,29.81,SW,228,11.5,11.5,51,0.00,OVC,,0.00,392.0,WeatherDisplay:10.37,2013-03-15 14:40:00,
2013-03-15 10:45:00,25.5,8.5,29.81,WSW,251,9.2,9.2,48,0.00,OVC,,0.00,213.0,WeatherDisplay:10.37,2013-03-15 14:45:00,
2013-03-15 10:50:00,25.6,7.7,29.81,WSW,244,6.9,6.9,46,0.00,OVC,,0.00,267.0,WeatherDisplay:10.37,2013-03-15 14:50:00,
2013-03-15 10:55:00,25.8,8.3,29.80,SW,228,6.9,6.9,47,0.00,OVC,,0.00,360.0,WeatherDisplay:10.37,2013-03-15 14:55:00,
2013-03-15 11:00:00,26.1,10.0,29.80,SSW,212,9.2,9.2,50,0.00,OVC,,0.00,594.0,WeatherDisplay:10.37,2013-03-15 15:00:00,
2013-03-15 11:05:00,26.4,8.4,29.80,WSW,252,5.8,5.8,46,0.00,OVC,,0.00,410.0,WeatherDisplay:10.37,2013-03-15 15:05:00,
2013-03-15 11:10:00,26.8,8.8,29.80,SW,235,5.8,5.8,46,0.00,OVC,,0.00,534.0,WeatherDisplay:10.37,2013-03-15 15:10:00,
2013-03-15 11:15:00,27.0,8.5,29.79,WSW,241,5.8,5.8,45,0.00,OVC,,0.00,580.0,WeatherDisplay:10.37,2013-03-15 15:15:00,
2013-03-15 11:20:00,27.3,8.7,29.79,WSW,244,9.2,9.2,45,0.00,OVC,,0.00,202.0,WeatherDisplay:10.37,2013-03-15 15:20:00,
2013-03-15 11:25:00,27.6,8.5,29.79,WSW,248,4.0,4.0,44,0.00,OVC,,0.00,373.0,WeatherDisplay:10.37,2013-03-15 15:25:00,
2013-03-15 11:30:00,28.0,8.4,29.78,West,261,10.4,10.4,43,0.00,OVC,,0.00,563.0,WeatherDisplay:10.37,2013-03-15 15:30:00,
2013-03-15 11:35:00,28.2,7.5,29.78,SW,214,4.6,4.6,41,0.00,OVC,,0.00,663.0,WeatherDisplay:10.37,2013-03-15 15:35:00,
2013-03-15 11:40:00,28.6,8.4,29.78,WSW,257,4.6,4.6,42,0.00,OVC,,0.00,657.0,WeatherDisplay:10.37,2013-03-15 15:40:00,
2013-03-15 11:45:00,29.2,9.4,29.78,West,264,6.9,6.9,43,0.00,OVC,,0.00,635.0,WeatherDisplay:10.37,2013-03-15 15:45:00,
2013-03-15 11:50:00,29.8,9.5,29.77,WSW,237,2.3,2.3,42,0.00,OVC,,0.00,717.0,WeatherDisplay:10.37,2013-03-15 15:50:00,
2013-03-15 11:55:00,30.7,9.2,29.77,WNW,287,6.9,6.9,40,0.00,OVC,,0.00,724.0,WeatherDisplay:10.37,2013-03-15 15:55:00,
2013-03-15 12:00:00,31.6,10.0,29.77,West,261,4.0,4.0,40,0.00,OVC,,0.00,751.0,WeatherDisplay:10.37,2013-03-15 16:00:00,
2013-03-15 12:05:00,32.4,9.6,29.76,SW,219,12.7,12.7,38,0.00,CLR,,0.00,689.0,WeatherDisplay:10.37,2013-03-15 16:05:00,
2013-03-15 12:10:00,33.0,9.5,29.76,South,181,12.0,12.0,37,0.00,CLR,,0.00,729.0,WeatherDisplay:10.37,2013-03-15 16:10:00,
2013-03-15 12:15:00,33.7,10.7,29.76,WSW,252,10.4,10.4,38,0.00,CLR,,0.00,700.0,WeatherDisplay:10.37,2013-03-15 16:15:00,
2013-03-15 12:20:00,33.7,8.9,29.76,West,265,15.0,15.0,35,0.00,CLR,,0.00,606.0,WeatherDisplay:10.37,2013-03-15 16:20:00,
2013-03-15 12:25:00,33.7,10.1,29.76,West,263,6.9,6.9,37,0.00,CLR,,0.00,635.0,WeatherDisplay:10.37,2013-03-15 16:25:00,
2013-03-15 12:30:00,33.6,10.1,29.75,West,259,6.9,6.9,37,0.00,CLR,,0.00,360.0,WeatherDisplay:10.37,2013-03-15 16:30:00,
2013-03-15 12:35:00,33.4,9.3,29.75,SSW,194,10.4,10.4,36,0.00,CLR,,0.00,573.0,WeatherDisplay:10.37,2013-03-15 16:35:00,
2013-03-15 12:40:00,33.6,10.1,29.74,SW,219,9.2,9.2,37,0.00,CLR,,0.00,598.0,WeatherDisplay:10.37,2013-03-15 16:40:00,
2013-03-15 12:45:00,33.8,9.6,29.74,WSW,254,10.4,10.4,36,0.00,CLR,,0.00,664.0,WeatherDisplay:10.37,2013-03-15 16:45:00,
2013-03-15 12:50:00,34.0,11.0,29.74,SW,224,9.2,9.2,38,0.00,CLR,,0.00,617.0,WeatherDisplay:10.37,2013-03-15 16:50:00,
2013-03-15 12:55:00,34.1,10.5,29.73,SSW,200,11.5,11.5,37,0.00,CLR,,0.00,649.0,WeatherDisplay:10.37,2013-03-15 16:55:00,
2013-03-15 13:00:00,34.5,12.6,29.73,SSW,196,12.0,12.0,40,0.00,CLR,,0.00,578.0,WeatherDisplay:10.37,2013-03-15 17:00:00,
2013-03-15 13:05:00,34.9,11.8,29.73,SSW,207,13.8,13.8,38,0.00,CLR,,0.00,524.0,WeatherDisplay:10.37,2013-03-15 17:05:00,
2013-03-15 13:10:00,35.0,10.1,29.73,West,274,11.5,11.5,35,0.00,CLR,,0.00,526.0,WeatherDisplay:10.37,2013-03-15 17:10:00,
2013-03-15 13:16:00,35.0,10.1,29.72,West,274,6.9,6.9,35,0.00,CLR,,0.00,559.0,WeatherDisplay:10.37,2013-03-15 17:16:00,
2013-03-15 13:21:00,35.1,10.8,29.72,WNW,301,11.5,11.5,36,0.00,CLR,,0.00,494.0,WeatherDisplay:10.37,2013-03-15 17:21:00,
2013-03-15 13:26:00,35.0,10.7,29.71,SSW,213,9.2,9.2,36,0.00,CLR,,0.00,592.0,WeatherDisplay:10.37,2013-03-15 17:26:00,
2013-03-15 13:31:00,35.3,12.8,29.71,South,187,3.5,3.5,39,0.00,CLR,,0.00,548.0,WeatherDisplay:10.37,2013-03-15 17:31:00,
2013-03-15 13:36:00,35.4,11.7,29.71,West,259,3.5,3.5,37,0.00,CLR,,0.00,527.0,WeatherDisplay:10.37,2013-03-15 17:36:00,
2013-03-15 13:41:00,35.4,11.7,29.70,WSW,244,21.9,21.9,37,0.00,CLR,,0.00,577.0,WeatherDisplay:10.37,2013-03-15 17:41:00,
2013-03-15 13:46:00,35.4,11.7,29.69,WSW,250,4.6,4.6,37,0.00,CLR,,0.00,454.0,WeatherDisplay:10.37,2013-03-15 17:46:00,
2013-03-15 13:51:00,35.3,12.8,29.69,WSW,237,12.7,12.7,39,0.00,CLR,,0.00,464.0,WeatherDisplay:10.37,2013-03-15 17:51:00,
2013-03-15 13:56:00,34.9,11.8,29.70,WSW,257,17.3,17.3,38,0.00,CLR,,0.00,404.0,WeatherDisplay:10.37,2013-03-15 17:56:00,
2013-03-15 14:01:00,34.6,11.6,29.68,WSW,242,15.0,15.0,38,0.00,CLR,,0.00,290.0,WeatherDisplay:10.37,2013-03-15 18:01:00,
2013-03-15 14:06:00,34.5,13.2,29.69,SW,226,11.5,11.5,41,0.00,FEW,,0.00,267.0,WeatherDisplay:10.37,2013-03-15 18:06:00,
2013-03-15 14:11:00,34.5,13.7,29.68,SW,234,5.8,5.8,42,0.00,CLR,,0.00,369.0,WeatherDisplay:10.37,2013-03-15 18:11:00,
2013-03-15 14:16:00,34.5,14.8,29.68,West,270,16.1,16.1,44,0.00,CLR,,0.00,306.0,WeatherDisplay:10.37,2013-03-15 18:16:00,
2013-03-15 14:21:00,34.3,14.6,29.68,West,281,16.1,16.1,44,0.00,FEW,,0.00,302.0,WeatherDisplay:10.37,2013-03-15 18:21:00,
2013-03-15 14:26:00,34.0,15.4,29.67,SW,223,17.3,17.3,46,0.00,FEW,,0.00,290.0,WeatherDisplay:10.37,2013-03-15 18:26:00,
2013-03-15 14:31:00,33.8,14.7,29.67,SW,235,19.6,19.6,45,0.00,FEW,,0.00,308.0,WeatherDisplay:10.37,2013-03-15 18:31:00,
2013-03-15 14:36:00,33.8,15.2,29.67,WSW,252,17.3,17.3,46,0.00,FEW,,0.00,311.0,WeatherDisplay:10.37,2013-03-15 18:36:00,
2013-03-15 14:41:00,33.7,15.1,29.67,SSW,202,6.9,6.9,46,0.00,FEW,,0.00,302.0,WeatherDisplay:10.37,2013-03-15 18:41:00,
2013-03-15 14:46:00,33.7,17.0,29.67,SW,217,11.0,11.0,50,0.00,FEW,,0.00,315.0,WeatherDisplay:10.37,2013-03-15 18:46:00,
2013-03-15 14:51:00,34.0,17.3,29.67,WSW,244,8.1,8.1,50,0.00,SCT,,0.00,295.0,WeatherDisplay:10.37,2013-03-15 18:51:00,
2013-03-15 14:56:00,34.2,17.5,29.67,West,270,11.5,11.5,50,0.00,SCT,,0.00,316.0,WeatherDisplay:10.37,2013-03-15 18:56:00,
2013-03-15 15:01:00,34.3,17.1,29.66,WNW,286,8.1,8.1,49,0.00,SCT,,0.00,274.0,WeatherDisplay:10.37,2013-03-15 19:01:00,
2013-03-15 15:06:00,34.5,17.8,29.66,SW,221,4.6,4.6,50,0.00,SCT,,0.00,290.0,WeatherDisplay:10.37,2013-03-15 19:06:00,
2013-03-15 15:11:00,34.5,18.7,29.66,SW,219,10.0,10.0,52,0.00,SCT,,0.00,315.0,WeatherDisplay:10.37,2013-03-15 19:11:00,
2013-03-15 15:16:00,34.7,17.9,29.66,SW,221,11.5,11.5,50,0.00,SCT,,0.00,323.0,WeatherDisplay:10.37,2013-03-15 19:16:00,
2013-03-15 15:21:00,35.1,19.2,29.66,SW,221,10.4,10.4,52,0.00,SCT,,0.00,311.0,WeatherDisplay:10.37,2013-03-15 19:21:00,
2013-03-15 15:26:00,35.2,20.2,29.66,West,264,11.5,12.8,54,0.00,SCT,,0.00,288.0,WeatherDisplay:10.37,2013-03-15 19:26:00,
2013-03-15 15:31:00,35.2,19.8,29.65,WSW,252,5.8,7.8,53,0.00,SCT,,0.00,301.0,WeatherDisplay:10.37,2013-03-15 19:31:00,
2013-03-15 15:36:00,35.3,20.7,29.65,West,274,11.5,11.5,55,0.00,BKN,,0.00,255.0,WeatherDisplay:10.37,2013-03-15 19:36:00,
2013-03-15 15:41:00,35.3,20.3,29.65,SW,233,9.2,9.2,54,0.00,BKN,,0.00,241.0,WeatherDisplay:10.37,2013-03-15 19:41:00,
2013-03-15 15:46:00,35.1,19.7,29.65,SW,217,13.8,13.8,53,0.00,BKN,,0.00,199.0,WeatherDisplay:10.37,2013-03-15 19:46:00,
2013-03-15 15:51:00,35.0,19.6,29.64,SW,227,15.0,15.0,53,0.00,BKN,,0.00,209.0,WeatherDisplay:10.37,2013-03-15 19:51:00,
2013-03-15 15:56:00,34.9,19.9,29.64,SW,221,9.0,9.0,54,0.00,BKN,,0.00,160.0,WeatherDisplay:10.37,2013-03-15 19:56:00,
2013-03-15 16:01:00,34.7,19.3,29.64,SW,223,12.7,12.7,53,0.00,BKN,,0.00,134.0,WeatherDisplay:10.37,2013-03-15 20:01:00,
2013-03-15 16:06:00,34.5,19.5,29.64,WSW,238,5.8,6.4,54,0.00,BKN,,0.00,120.0,WeatherDisplay:10.37,2013-03-15 20:06:00,
2013-03-15 16:11:00,34.3,19.8,29.64,WSW,244,6.9,6.9,55,0.00,BKN,,0.00,90.0,WeatherDisplay:10.37,2013-03-15 20:11:00,
2013-03-15 16:16:00,34.1,20.4,29.63,SW,227,15.0,15.0,57,0.00,BKN,,0.00,74.0,WeatherDisplay:10.37,2013-03-15 20:16:00,
2013-03-15 16:21:00,33.9,20.3,29.64,West,259,15.0,15.0,57,0.00,BKN,,0.00,62.0,WeatherDisplay:10.37,2013-03-15 20:21:00,
2013-03-15 16:26:00,33.8,20.6,29.63,WSW,244,16.1,16.1,58,0.00,BKN,,0.00,51.0,WeatherDisplay:10.37,2013-03-15 20:26:00,
2013-03-15 16:31:00,33.6,20.4,29.63,WSW,248,16.1,16.1,58,0.00,BKN,,0.00,56.0,WeatherDisplay:10.37,2013-03-15 20:31:00,
2013-03-15 16:36:00,33.4,20.6,29.64,SW,228,8.1,8.1,59,0.00,OVC,,0.00,51.0,WeatherDisplay:10.37,2013-03-15 20:36:00,
2013-03-15 16:41:00,33.4,21.0,29.63,SW,236,19.6,19.6,60,0.00,BKN,,0.00,67.0,WeatherDisplay:10.37,2013-03-15 20:41:00,
2013-03-15 16:46:00,33.3,21.3,29.63,SW,227,11.5,11.5,61,0.00,OVC,,0.00,44.0,WeatherDisplay:10.37,2013-03-15 20:46:00,
2013-03-15 16:51:00,33.3,21.7,29.63,West,279,11.5,11.5,62,0.00,BKN,,0.00,74.0,WeatherDisplay:10.37,2013-03-15 20:51:00,
2013-03-15 16:56:00,33.1,21.9,29.63,SW,224,9.2,9.2,63,0.00,OVC,,0.00,42.0,WeatherDisplay:10.37,2013-03-15 20:56:00,
2013-03-15 17:01:00,33.1,22.6,29.63,West,273,3.5,3.5,65,0.00,CLR,,0.00,51.0,WeatherDisplay:10.37,2013-03-15 21:01:00,
2013-03-15 17:06:00,33.0,22.9,29.63,West,266,11.5,11.5,66,0.00,BKN,,0.00,83.0,WeatherDisplay:10.37,2013-03-15 21:06:00,
2013-03-15 17:11:00,33.0,23.2,29.63,SW,229,16.1,16.1,67,0.00,BKN,,0.00,111.0,WeatherDisplay:10.37,2013-03-15 21:11:00,
2013-03-15 17:16:00,32.9,23.5,29.63,SW,221,12.7,12.7,68,0.00,BKN,,0.00,63.0,WeatherDisplay:10.37,2013-03-15 21:16:00,
2013-03-15 17:21:00,32.7,23.6,29.63,WSW,237,15.0,15.0,69,0.00,BKN,,0.00,86.0,WeatherDisplay:10.37,2013-03-15 21:21:00,
2013-03-15 17:26:00,32.7,24.0,29.63,SW,231,17.3,17.3,70,0.00,BKN,,0.00,53.0,WeatherDisplay:10.37,2013-03-15 21:26:00,
2013-03-15 17:31:00,32.6,24.2,29.63,SW,230,11.5,11.5,71,0.00,CLR,,0.00,35.0,WeatherDisplay:10.37,2013-03-15 21:31:00,
2013-03-15 17:36:00,32.6,24.2,29.63,WSW,245,4.6,6.6,71,0.00,CLR,,0.00,33.0,WeatherDisplay:10.37,2013-03-15 21:36:00,
2013-03-15 17:41:00,32.5,24.5,29.63,SW,236,15.0,15.0,72,0.00,CLR,,0.00,19.0,WeatherDisplay:10.37,2013-03-15 21:41:00,
2013-03-15 17:46:00,32.3,24.6,29.62,WNW,284,11.5,11.5,73,0.00,CLR,,0.00,37.0,WeatherDisplay:10.37,2013-03-15 21:46:00,
2013-03-15 17:51:00,32.1,24.7,29.63,WSW,254,6.9,7.8,74,0.00,CLR,,0.00,32.0,WeatherDisplay:10.37,2013-03-15 21:51:00,
2013-03-15 17:56:00,31.8,25.1,29.62,SW,220,11.5,11.5,76,0.00,CLR,,0.00,26.0,WeatherDisplay:10.37,2013-03-15 21:56:00,
2013-03-15 18:01:00,31.7,25.3,29.62,WSW,247,12.0,12.0,77,0.00,CLR,,0.00,28.0,WeatherDisplay:10.37,2013-03-15 22:01:00,
2013-03-15 18:06:00,31.6,25.8,29.62,West,270,4.6,4.6,79,0.00,CLR,,0.00,18.0,WeatherDisplay:10.37,2013-03-15 22:06:00,
2013-03-15 18:11:00,31.4,25.9,29.62,WNW,290,6.0,6.0,80,0.00,CLR,,0.00,23.0,WeatherDisplay:10.37,2013-03-15 22:11:00,
2013-03-15 18:16:00,31.2,26.0,29.63,SW,220,6.0,6.0,81,0.00,CLR,,0.00,12.0,WeatherDisplay:10.37,2013-03-15 22:16:00,
2013-03-15 18:22:00,31.0,26.1,29.62,SW,225,10.4,10.4,82,0.00,CLR,,0.00,14.0,WeatherDisplay:10.37,2013-03-15 22:22:00,
2013-03-15 18:27:00,30.7,26.1,29.63,WSW,250,3.5,3.5,83,0.00,CLR,,0.00,12.0,WeatherDisplay:10.37,2013-03-15 22:27:00,
2013-03-15 18:32:00,30.6,26.3,29.63,SW,222,5.8,5.8,84,0.00,CLR,,0.00,7.0,WeatherDisplay:10.37,2013-03-15 22:32:00,
2013-03-15 18:37:00,30.4,26.4,29.63,WSW,240,3.5,3.5,85,0.00,CLR,,0.00,5.0,WeatherDisplay:10.37,2013-03-15 22:37:00,
2013-03-15 18:42:00,30.3,26.3,29.63,SW,231,5.8,5.8,85,0.00,CLR,,0.00,0.0,WeatherDisplay:10.37,2013-03-15 22:42:00,
2013-03-15 18:47:00,30.2,26.5,29.63,SW,216,4.6,4.6,86,0.00,CLR,,0.00,0.0,WeatherDisplay:10.37,2013-03-15 22:47:00,
2013-03-15 18:52:00,30.0,26.3,29.63,SW,227,6.9,6.9,86,0.00,CLR,,0.00,0.0,WeatherDisplay:10.37,2013-03-15 22:52:00,
2013-03-15 18:57:00,30.0,26.3,29.63,WSW,246,6.0,6.0,86,0.00,CLR,,0.00,0.0,WeatherDisplay:10.37,2013-03-15 22:57:00,
2013-03-15 19:02:00,29.9,26.5,29.63,SW,222,4.0,4.0,87,0.00,CLR,,0.00,0.0,WeatherDisplay:10.37,2013-03-15 23:02:00,
2013-03-15 19:07:00,29.8,26.4,29.63,SW,234,4.6,4.6,87,0.00,CLR,,0.00,0.0,WeatherDisplay:10.37,2013-03-15 23:07:00,
2013-03-15 19:12:00,29.8,26.7,29.63,SW,232,7.0,7.0,88,0.00,CLR,,0.00,0.0,WeatherDisplay:10.37,2013-03-15 23:12:00,
2013-03-15 19:17:00,29.7,26.6,29.63,SW,234,5.8,5.8,88,0.00,CLR,,0.00,0.0,WeatherDisplay:10.37,2013-03-15 23:17:00,
2013-03-15 19:22:00,29.6,26.5,29.63,SW,235,10.4,10.4,88,0.00,CLR,,0.00,0.0,WeatherDisplay:10.37,2013-03-15 23:22:00,
2013-03-15 19:27:00,29.5,26.7,29.62,SW,234,8.1,8.1,89,0.00,CLR,,0.00,0.0,WeatherDisplay:10.37,2013-03-15 23:27:00,
2013-03-15 19:32:00,29.5,26.7,29.63,SW,225,5.8,5.8,89,0.00,CLR,,0.00,0.0,WeatherDisplay:10.37,2013-03-15 23:32:00,
2013-03-15 19:37:00,29.4,26.6,29.63,SW,225,4.6,5.0,89,0.00,CLR,,0.00,0.0,WeatherDisplay:10.37,2013-03-15 23:37:00,
2013-03-15 19:43:00,29.4,26.5,29.63,SW,226,6.0,14.0,89,0.00,CLR,CLR,0.00,0.0,WeatherDisplay:10.37,2013-03-15 23:43:00,
2013-03-15 19:48:00,29.3,26.7,29.63,WSW,244,6.9,6.9,90,0.00,CLR,,0.00,0.0,WeatherDisplay:10.37,2013-03-15 23:48:00,
2013-03-15 19:53:00,29.4,26.8,29.63,SW,232,7.0,15.0,90,0.00,CLR,CLR,0.00,0.0,WeatherDisplay:10.37,2013-03-15 23:53:00,
2013-03-15 19:58:00,29.3,26.7,29.63,SW,222,4.6,4.6,90,0.00,CLR,,0.00,0.0,WeatherDisplay:10.37,2013-03-15 23:58:00,
2013-03-15 20:03:00,29.3,27.0,29.63,SW,230,9.2,9.2,91,0.00,CLR,,0.00,0.0,WeatherDisplay:10.37,2013-03-16 00:03:00,
2013-03-15 20:08:00,29.4,27.1,29.63,SSW,197,11.5,11.5,91,0.00,CLR,,0.00,0.0,WeatherDisplay:10.37,2013-03-16 00:08:00,
2013-03-15 20:13:00,29.4,27.1,29.63,SW,229,6.0,14.0,91,0.00,CLR,CLR,0.00,0.0,WeatherDisplay:10.37,2013-03-16 00:13:00,
2013-03-15 20:18:00,29.4,27.1,29.63,SW,236,13.0,13.0,91,0.00,CLR,,0.00,0.0,WeatherDisplay:10.37,2013-03-16 00:18:00,
2013-03-15 20:23:00,29.4,27.1,29.63,SW,222,6.0,14.0,91,0.00,CLR,CLR,0.00,0.0,WeatherDisplay:10.37,2013-03-16 00:23:00,
2013-03-15 20:28:00,29.4,27.1,29.63,WSW,250,12.7,12.7,91,0.00,CLR,,0.00,0.0,WeatherDisplay:10.37,2013-03-16 00:28:00,
2013-03-15 20:33:00,29.4,27.1,29.63,SW,232,16.0,16.0,91,0.00,CLR,,0.00,0.0,WeatherDisplay:10.37,2013-03-16 00:33:00,
2013-03-15 20:38:00,29.4,27.4,29.64,WNW,284,14.0,14.0,92,0.00,CLR,,0.00,0.0,WeatherDisplay:10.37,2013-03-16 00:38:00,
2013-03-15 20:43:00,29.4,27.1,29.63,WSW,238,7.0,16.0,91,0.00,CLR,CLR,0.00,0.0,WeatherDisplay:10.37,2013-03-16 00:43:00,
2013-03-15 20:48:00,29.3,27.0,29.64,SW,232,18.4,18.4,91,0.00,CLR,,0.00,0.0,WeatherDisplay:10.37,2013-03-16 00:48:00,
2013-03-15 20:53:00,29.2,26.9,29.64,West,264,11.5,11.5,91,0.00,CLR,,0.00,0.0,WeatherDisplay:10.37,2013-03-16 00:53:00,
2013-03-15 20:58:00,29.1,27.1,29.64,West,273,6.9,6.9,92,0.00,CLR,,0.00,0.0,WeatherDisplay:10.37,2013-03-16 00:58:00,
2013-03-15 21:03:00,29.1,27.1,29.64,WSW,240,3.0,12.0,92,0.00,CLR,CLR,0.00,0.0,WeatherDisplay:10.37,2013-03-16 01:03:00,
2013-03-15 21:08:00,29.0,27.0,29.64,SW,227,9.2,9.2,92,0.00,CLR,,0.00,0.0,WeatherDisplay:10.37,2013-03-16 01:08:00,
2013-03-15 21:13:00,28.9,26.9,29.64,SW,217,4.6,4.6,92,0.00,CLR,,0.00,0.0,WeatherDisplay:10.37,2013-03-16 01:13:00,
2013-03-15 21:18:00,28.8,26.8,29.63,West,265,11.5,11.5,92,0.00,CLR,,0.00,0.0,WeatherDisplay:10.37,2013-03-16 01:18:00,
2013-03-15 21:23:00,28.8,26.8,29.63,West,259,10.4,10.4,92,0.00,CLR,,0.00,0.0,WeatherDisplay:10.37,2013-03-16 01:23:00,
2013-03-15 21:28:00,28.7,26.7,29.63,WSW,248,4.6,4.6,92,0.00,CLR,,0.00,0.0,WeatherDisplay:10.37,2013-03-16 01:28:00,
2013-03-15 21:33:00,28.6,26.6,29.64,WSW,257,5.8,5.8,92,0.00,CLR,,0.00,0.0,WeatherDisplay:10.37,2013-03-16 01:33:00,
2013-03-15 21:38:00,28.4,26.4,29.63,WSW,244,12.7,12.7,92,0.00,CLR,,0.00,0.0,WeatherDisplay:10.37,2013-03-16 01:38:00,
2013-03-15 21:43:00,28.3,26.3,29.64,SW,233,10.4,10.4,92,0.00,CLR,,0.00,0.0,WeatherDisplay:10.37,2013-03-16 01:43:00,
2013-03-15 21:48:00,28.3,26.3,29.64,SSW,204,8.1,8.1,92,0.00,CLR,,0.00,0.0,WeatherDisplay:10.37,2013-03-16 01:48:00,
2013-03-15 21:53:00,28.2,26.2,29.64,SW,226,4.6,4.6,92,0.00,CLR,,0.00,0.0,WeatherDisplay:10.37,2013-03-16 01:53:00,
2013-03-15 21:58:00,28.2,25.9,29.64,WSW,256,10.4,10.4,91,0.00,CLR,,0.00,0.0,WeatherDisplay:10.37,2013-03-16 01:58:00,
2013-03-15 22:03:00,28.1,25.8,29.64,SW,219,6.0,6.0,91,0.00,CLR,,0.00,0.0,WeatherDisplay:10.37,2013-03-16 02:03:00,
2013-03-15 22:08:00,28.0,25.7,29.64,SW,233,5.8,5.8,91,0.00,CLR,,0.00,0.0,WeatherDisplay:10.37,2013-03-16 02:08:00,
2013-03-15 22:13:00,28.0,25.7,29.64,West,281,6.9,6.9,91,0.00,CLR,,0.00,0.0,WeatherDisplay:10.37,2013-03-16 02:13:00,
2013-03-15 22:18:00,27.9,25.6,29.64,WSW,250,3.5,3.5,91,0.00,CLR,,0.00,0.0,WeatherDisplay:10.37,2013-03-16 02:18:00,
2013-03-15 22:23:00,27.9,25.6,29.65,West,275,5.8,5.8,91,0.00,CLR,,0.00,0.0,WeatherDisplay:10.37,2013-03-16 02:23:00,
2013-03-15 22:28:00,27.8,25.2,29.65,SW,215,3.5,3.5,90,0.00,CLR,,0.00,0.0,WeatherDisplay:10.37,2013-03-16 02:28:00,
2013-03-15 22:33:00,27.8,25.2,29.65,WSW,250,4.6,4.6,90,0.00,CLR,,0.00,0.0,WeatherDisplay:10.37,2013-03-16 02:33:00,
2013-03-15 22:38:00,27.7,25.2,29.65,WSW,253,2.3,2.3,90,0.00,CLR,,0.00,0.0,WeatherDisplay:10.37,2013-03-16 02:38:00,
2013-03-15 22:43:00,27.7,24.9,29.65,WSW,252,0.0,0.1,89,0.00,CLR,,0.00,0.0,WeatherDisplay:10.37,2013-03-16 02:43:00,
2013-03-15 22:48:00,27.7,24.9,29.65,WSW,240,3.5,3.5,89,0.00,CLR,,0.00,0.0,WeatherDisplay:10.37,2013-03-16 02:48:00,
2013-03-15 22:53:00,27.6,24.8,29.65,West,262,4.6,4.6,89,0.00,CLR,,0.00,0.0,WeatherDisplay:10.37,2013-03-16 02:53:00,
2013-03-15 22:58:00,27.6,24.5,29.65,WSW,248,4.6,4.6,88,0.00,CLR,,0.00,0.0,WeatherDisplay:10.37,2013-03-16 02:58:00,
2013-03-15 23:03:00,27.6,24.5,29.66,WNW,291,0.0,0.0,88,0.00,CLR,,0.00,0.0,WeatherDisplay:10.37,2013-03-16 03:03:00,
2013-03-15 23:08:00,27.7,24.6,29.66,NNW,327,4.6,4.6,88,0.00,CLR,,0.00,0.0,WeatherDisplay:10.37,2013-03-16 03:08:00,
2013-03-15 23:13:00,27.9,24.5,29.67,NNW,328,3.5,3.5,87,0.00,CLR,,0.00,0.0,WeatherDisplay:10.37,2013-03-16 03:13:00,
2013-03-15 23:18:00,28.1,24.7,29.67,NW,315,10.4,10.4,87,0.00,CLR,,0.00,0.0,WeatherDisplay:10.37,2013-03-16 03:18:00,
2013-03-15 23:23:00,28.3,24.9,29.67,NW,321,2.3,2.3,87,0.00,CLR,,0.00,0.0,WeatherDisplay:10.37,2013-03-16 03:23:00,
2013-03-15 23:28:00,28.4,25.0,29.67,NW,308,4.0,4.0,87,0.00,CLR,,0.00,0.0,WeatherDisplay:10.37,2013-03-16 03:28:00,
2013-03-15 23:33:00,28.4,25.0,29.67,WNW,303,4.6,4.6,87,0.00,CLR,,0.00,0.0,WeatherDisplay:10.37,2013-03-16 03:33:00,
2013-03-15 23:38:00,28.5,25.1,29.67,West,280,5.8,5.8,87,0.00,CLR,,0.00,0.0,WeatherDisplay:10.37,2013-03-16 03:38:00,
2013-03-15 23:43:00,28.4,25.0,29.67,WNW,287,3.5,3.5,87,0.00,CLR,,0.00,0.0,WeatherDisplay:10.37,2013-03-16 03:43:00,
2013-03-15 23:48:00,28.4,25.0,29.67,WNW,302,5.8,5.8,87,0.00,CLR,,0.00,0.0,WeatherDisplay:10.37,2013-03-16 03:48:00,
2013-03-15 23:53:00,28.4,25.0,29.68,NNW,338,5.8,5.8,87,0.00,CLR,,0.00,0.0,WeatherDisplay:10.37,2013-03-16 03:53:00,
2013-03-15 23:58:00,28.3,24.9,29.69,NW,324,0.0,0.0,87,0.00,CLR,,0.00,0.0,WeatherDisplay:10.37,2013-03-16 03:58:00,